Wind_Speed
5 5 4 3 4 4 4 4 5 4 5 5 5 5 6 5 5 6 6 5 5 5 5 4 5 6 6 5 6 6 7 7 8 9 9 9 10 10 11 11 12 12 11
6 6 5 4 4 4 4 4 5 5 6 6 7 6 6 6 6 7 7 6 5 5 6 5 5 6 6 6 6 7 7 7 8 8 9 10 10 10 11 11 12 12 12
7 7 6 5 5 4 5 5 5 6 7 7 7 7 7 7 7 7 6 6 5 5 5 5 6 6 6 6 6 7 7 8 8 8 9 10 11 11 11 12 12 13 13
7 7 7 7 6 5 5 5 6 6 7 8 8 7 8 7 7 6 6 5 6 6 6 6 6 6 7 6 7 7 8 8 8 8 9 10 10 11 12 11 12 14 14
7 7 8 8 8 7 7 7 7 8 8 8 7 7 7 6 7 7 7 6 6 6 5 6 6 6 6 7 7 7 8 9 9 10 10 11 11 12 12 12 12 14 15
8 8 8 9 9 8 8 8 8 8 8 8 8 8 7 6 7 7 8 7 6 5 6 5 6 6 7 8 8 8 9 11 11 11 12 12 12 11 11 12 13 13 13
9 8 9 9 9 10 9 9 9 9 9 8 8 8 8 8 8 9 8 8 8 7 6 6 5 6 7 8 9 10 10 11 12 12 12 12 12 11 12 13 14 14 13
10 9 9 9 10 10 10 10 9 9 10 10 9 9 9 9 9 9 9 9 8 7 7 7 7 7 7 8 9 10 10 11 11 12 12 12 13 12 12 13 13 14 14
11 11 10 10 11 11 10 10 10 10 10 10 10 10 9 9 10 10 9 8 8 8 8 8 8 8 9 9 10 10 10 11 11 11 12 13 13 12 12 13 13 13 14
12 12 11 12 12 11 11 11 11 11 10 11 10 10 10 9 9 10 10 10 10 10 10 10 9 10 10 10 11 11 10 11 11 11 11 12 12 12 13 13 13 13 13
13 13 13 13 12 12 12 12 12 12 11 11 11 11 11 11 10 10 10 11 11 11 12 12 12 12 12 12 12 12 12 12 12 12 13 13 13 13 13 13 13 13 13
14 14 14 13 13 13 13 13 13 13 13 12 11 12 12 12 11 11 11 11 11 12 12 13 13 13 13 14 14 14 14 14 14 14 14 15 15 15 14 15 14 14 14
16 15 15 14 14 14 14 14 14 14 13 13 13 13 13 13 12 12 13 13 12 13 14 14 14 14 15 15 16 16 16 16 15 15 15 15 16 16 16 16 16 16 15
17 17 16 16 16 16 16 15 15 15 15 15 14 14 14 14 14 14 14 14 14 14 14 15 16 16 16 16 17 17 17 16 16 15 15 16 17 17 18 18 17 17 17
19 18 17 17 16 17 17 17 17 17 17 16 16 16 17 17 16 16 16 16 16 15 16 16 17 18 18 18 18 18 18 17 17 17 17 17 17 17 18 18 19 19 19
20 19 18 18 18 18 17 18 18 18 18 18 18 18 18 18 17 17 17 17 17 17 17 17 18 18 19 19 18 18 18 18 18 18 18 17 18 19 19 19 20 21 21
21 20 19 20 20 20 19 19 19 19 19 19 20 20 20 20 19 19 19 19 19 19 18 18 19 19 20 20 20 19 19 19 19 19 19 18 19 19 19 19 20 20 20
22 21 21 21 21 21 21 21 20 20 21 21 21 21 21 21 21 21 21 21 21 21 21 20 20 20 20 20 20 20 20 20 20 20 20 20 20 20 19 19 20 20 21
23 23 23 22 22 22 22 22 22 22 21 22 22 22 22 22 23 23 23 23 23 23 23 22 22 22 22 21 21 21 21 21 21 22 22 21 21 20 20 20 20 20 22
24 24 24 23 23 24 24 23 23 23 22 22 22 23 23 23 23 24 24 25 25 25 24 24 23 23 23 23 23 22 22 22 22 22 22 22 22 21 21 21 22 22 22
25 25 25 24 24 24 24 24 23 23 23 23 23 23 23 23 24 24 25 25 25 25 25 25 25 24 24 24 23 23 23 23 23 23 23 23 23 23 22 23 23 23 23
25 25 25 25 24 24 24 24 23 23 23 22 23 23 23 24 24 25 25 25 25 25 25 25 25 25 25 25 24 24 23 24 23 23 23 23 23 23 23 23 24 24 24
26 26 25 25 24 24 23 23 22 22 22 22 22 23 24 24 24 25 25 24 25 25 24 25 25 25 25 26 26 25 24 24 24 24 24 24 24 23 23 23 23 24 24
27 27 26 25 24 23 22 21 22 22 22 22 22 23 23 24 24 23 23 24 24 24 25 24 25 25 26 26 26 26 26 25 25 25 24 23 23 23 23 23 24 24 24
26 26 26 25 25 24 22 22 22 22 23 23 23 22 23 23 23 23 23 23 23 24 25 26 26 26 26 26 26 26 25 25 24 24 24 24 23 23 23 24 24 24 25
26 26 25 25 24 23 23 23 23 23 23 23 22 23 23 23 23 23 24 24 24 25 25 26 26 26 26 26 26 25 24 24 24 24 24 25 25 24 24 25 26 26 27
Wind_Direction
345 342 342 337 324 312 297 283 276 279 291 293 289 285 289 289 285 288 284 285 295 289 286 267 254 250 249 245 247 243 244 246 251 252 256 258 258 258 258 257 258 258 254
351 343 339 335 324 315 301 292 287 283 287 289 291 288 284 287 288 288 283 283 290 290 285 272 252 241 236 242 245 243 246 250 253 256 261 259 256 261 263 260 259 259 260
348 346 338 332 325 316 313 303 296 294 291 290 292 290 285 290 287 290 287 282 287 290 284 281 255 244 241 243 243 245 251 254 258 258 260 259 259 263 266 265 260 260 261
327 334 334 329 319 312 309 303 290 294 297 292 290 292 289 290 287 287 290 284 282 284 280 275 262 246 243 245 248 255 258 257 257 260 260 261 262 267 265 263 263 261 262
315 314 315 316 314 308 303 296 290 291 293 292 285 286 287 286 285 285 287 279 273 275 279 269 263 246 243 242 246 254 261 260 261 263 263 264 264 268 266 263 267 265 263
313 306 305 308 307 303 299 295 295 293 290 288 284 284 282 284 286 286 286 283 276 268 266 264 262 256 253 248 249 252 257 256 260 261 262 262 265 268 268 269 268 269 265
310 305 300 303 301 297 294 291 290 291 290 287 282 284 285 284 284 283 283 284 282 273 261 258 264 258 258 255 254 253 255 257 258 260 261 265 271 271 272 269 267 265 266
303 303 303 303 304 299 296 294 288 288 286 282 282 282 279 282 279 277 279 277 278 274 268 272 265 266 265 264 268 262 260 262 262 258 263 268 269 270 270 266 268 267 266
298 299 297 298 300 299 294 292 289 290 288 286 283 280 278 274 277 275 274 275 279 277 275 276 277 272 271 275 275 272 268 267 266 264 266 264 263 264 264 263 263 265 265
293 293 293 297 296 295 292 289 288 291 295 292 286 278 278 275 274 272 272 272 274 276 275 277 278 276 276 276 278 278 278 278 273 273 270 266 266 266 265 262 263 263 263
291 290 289 293 292 290 289 287 286 288 290 289 288 284 279 277 277 276 273 270 272 273 273 276 278 280 281 281 284 283 283 283 279 280 279 275 271 273 272 268 269 268 266
286 287 287 288 287 286 286 284 284 286 289 286 286 286 286 284 283 281 278 275 275 273 274 278 278 279 280 281 283 285 284 280 277 277 275 274 274 275 275 270 269 268 265
282 284 285 286 286 286 286 285 285 286 286 284 283 284 284 283 281 280 279 278 278 276 277 280 279 278 278 279 282 283 283 281 277 275 273 271 272 270 272 270 270 269 266
280 283 284 285 285 285 285 285 283 283 282 282 282 281 281 281 279 280 281 282 281 279 279 280 280 280 277 277 279 281 283 283 278 276 272 269 268 267 269 267 269 268 266
279 281 282 284 284 283 283 282 281 280 279 279 280 281 282 281 281 279 280 281 280 280 279 279 279 279 278 279 278 279 281 279 278 274 273 273 271 269 268 264 265 265 265
279 279 279 280 282 282 282 281 279 278 277 279 280 282 283 282 281 280 279 279 279 280 280 280 280 281 280 279 279 278 278 279 278 277 272 273 274 274 271 266 265 264 262
275 277 278 280 280 280 281 282 280 278 279 279 279 280 281 281 281 279 278 278 279 279 279 279 281 282 280 279 277 277 278 278 280 279 275 276 276 277 273 270 268 266 264
273 275 277 278 278 279 280 280 279 280 281 280 280 280 279 279 280 280 279 278 278 278 279 278 280 282 282 279 276 276 277 278 279 279 278 277 278 276 273 270 267 267 268
273 275 277 277 277 277 278 279 278 279 281 281 280 278 278 278 279 279 279 278 278 278 278 277 278 281 281 278 278 278 276 276 277 277 276 276 277 277 274 271 269 270 270
271 273 275 277 277 277 278 279 279 278 279 280 281 279 277 276 278 279 279 278 277 277 276 276 276 280 280 279 279 280 277 276 277 277 276 275 276 277 277 274 272 270 270
271 274 274 274 275 276 278 278 278 277 278 279 280 280 278 276 277 278 278 278 277 277 276 275 274 277 278 279 278 279 277 275 275 277 276 276 276 277 278 275 274 272 269
271 275 275 273 274 274 275 276 276 277 277 277 277 277 278 277 276 277 276 276 277 278 277 276 275 276 277 277 277 277 277 274 274 274 274 275 276 276 276 276 273 272 270
269 273 274 275 274 274 274 275 275 276 275 276 277 277 278 278 277 278 276 275 276 277 278 278 277 276 277 277 276 275 275 275 273 272 274 275 276 275 274 274 273 273 271
268 271 271 272 272 273 274 276 276 277 277 277 278 279 278 278 277 277 276 275 275 276 278 280 280 279 279 279 277 275 275 274 274 272 272 273 273 274 272 273 274 275 274
267 267 267 269 271 271 272 274 277 278 278 279 279 279 278 278 276 275 275 276 276 277 278 279 280 280 279 279 279 277 276 274 272 269 268 270 271 272 272 272 273 274 275
263 264 267 268 270 270 271 273 276 278 278 278 280 279 278 277 276 276 276 276 276 277 278 278 279 279 278 279 280 278 276 274 269 266 265 268 270 272 272 272 273 275 276
Height
5878 5877 5876 5875 5875 5874 5874 5873 5873 5872 5872 5871 5870 5869 5868 5868 5867 5866 5865 5865 5864 5864 5864 5863 5863 5864 5864 5865 5865 5866 5866 5867 5867 5867 5867 5867 5868 5868 5868 5868 5868 5868 5868
5877 5876 5875 5874 5874 5873 5873 5872 5872 5871 5871 5870 5869 5868 5867 5867 5866 5865 5864 5863 5862 5862 5862 5862 5862 5862 5862 5863 5863 5864 5864 5864 5865 5865 5865 5865 5865 5865 5865 5865 5865 5865 5865
5877 5876 5875 5874 5873 5873 5872 5871 5871 5870 5869 5869 5868 5866 5866 5865 5864 5863 5862 5862 5861 5861 5860 5860 5860 5860 5861 5861 5861 5862 5862 5862 5863 5863 5863 5862 5862 5862 5862 5862 5862 5862 5862
5877 5875 5874 5873 5872 5872 5871 5870 5870 5869 5868 5867 5866 5865 5864 5864 5863 5862 5861 5860 5860 5859 5859 5859 5859 5858 5859 5859 5859 5860 5860 5860 5860 5860 5860 5860 5860 5859 5859 5859 5859 5858 5858
5875 5874 5873 5872 5871 5870 5870 5869 5868 5867 5866 5865 5864 5864 5863 5862 5861 5861 5860 5859 5858 5858 5857 5857 5857 5856 5856 5857 5857 5858 5857 5857 5858 5857 5857 5857 5857 5856 5856 5856 5855 5855 5855
5874 5872 5872 5871 5870 5869 5868 5867 5866 5865 5864 5863 5863 5862 5861 5860 5859 5859 5858 5857 5856 5856 5856 5855 5855 5855 5855 5855 5855 5855 5854 5855 5855 5854 5854 5854 5853 5853 5853 5852 5852 5852 5851
5872 5871 5870 5869 5868 5867 5866 5865 5864 5863 5862 5862 5861 5860 5860 5859 5858 5857 5856 5855 5855 5854 5854 5853 5853 5853 5853 5853 5852 5852 5852 5851 5851 5851 5851 5851 5850 5850 5849 5849 5848 5848 5847
5870 5869 5868 5867 5866 5865 5864 5863 5862 5861 5860 5860 5859 5858 5857 5857 5856 5855 5854 5853 5853 5852 5852 5852 5851 5851 5850 5850 5849 5849 5849 5848 5847 5847 5847 5847 5847 5846 5846 5845 5845 5844 5844
5867 5866 5866 5865 5863 5862 5861 5860 5859 5859 5858 5857 5856 5856 5855 5854 5853 5853 5852 5852 5851 5850 5850 5849 5849 5849 5848 5848 5847 5846 5846 5845 5844 5844 5844 5844 5843 5843 5843 5842 5841 5841 5840
5865 5864 5863 5862 5861 5860 5858 5857 5857 5856 5855 5854 5853 5853 5852 5851 5851 5850 5849 5849 5848 5848 5848 5847 5847 5846 5846 5845 5844 5843 5842 5841 5841 5841 5840 5840 5840 5839 5839 5838 5838 5837 5837
5861 5861 5860 5859 5858 5857 5856 5854 5854 5853 5852 5851 5850 5849 5849 5848 5847 5847 5847 5846 5846 5845 5845 5844 5844 5843 5843 5842 5841 5840 5839 5838 5838 5837 5837 5836 5836 5835 5835 5835 5834 5833 5833
5858 5857 5856 5855 5855 5853 5852 5851 5850 5850 5849 5847 5847 5846 5845 5844 5844 5843 5843 5843 5842 5842 5842 5841 5840 5840 5839 5838 5837 5837 5835 5834 5834 5833 5833 5832 5832 5832 5831 5831 5830 5830 5830
5853 5853 5852 5851 5851 5849 5848 5847 5846 5846 5845 5844 5844 5843 5842 5841 5840 5840 5840 5839 5839 5839 5838 5837 5836 5836 5835 5834 5833 5832 5831 5830 5829 5829 5829 5828 5828 5827 5827 5826 5826 5826 5825
5849 5848 5848 5847 5846 5845 5844 5843 5842 5841 5840 5840 5839 5839 5838 5837 5836 5836 5836 5835 5835 5835 5834 5833 5832 5831 5831 5830 5829 5828 5826 5825 5824 5824 5824 5824 5823 5823 5822 5821 5821 5821 5821
5844 5843 5843 5842 5841 5840 5840 5839 5838 5837 5836 5835 5835 5834 5834 5832 5832 5831 5831 5830 5831 5830 5830 5828 5827 5826 5825 5825 5824 5823 5822 5821 5820 5820 5820 5819 5818 5818 5817 5816 5816 5816 5816
5839 5838 5838 5837 5836 5836 5835 5834 5833 5832 5831 5830 5830 5829 5828 5827 5827 5826 5825 5825 5825 5824 5824 5823 5822 5821 5820 5819 5818 5818 5817 5816 5815 5815 5814 5814 5813 5812 5812 5811 5811 5811 5810
5833 5833 5832 5832 5831 5830 5830 5829 5828 5827 5826 5825 5824 5823 5823 5822 5821 5821 5820 5819 5819 5819 5819 5818 5816 5816 5815 5814 5813 5812 5811 5811 5810 5809 5809 5808 5808 5807 5806 5805 5805 5804 5804
5827 5827 5826 5826 5825 5825 5824 5823 5822 5821 5820 5819 5818 5817 5817 5816 5815 5815 5814 5813 5813 5812 5812 5812 5811 5810 5809 5808 5808 5807 5806 5806 5805 5804 5803 5803 5802 5801 5800 5799 5799 5799 5798
5821 5821 5820 5820 5819 5819 5818 5817 5816 5815 5814 5813 5812 5811 5810 5810 5809 5808 5808 5807 5807 5806 5806 5806 5805 5803 5803 5802 5801 5801 5800 5800 5799 5798 5797 5797 5796 5795 5794 5793 5793 5792 5792
5815 5814 5814 5813 5812 5812 5811 5810 5810 5809 5808 5807 5806 5805 5804 5803 5802 5801 5801 5800 5800 5799 5799 5799 5798 5797 5796 5795 5795 5794 5793 5793 5793 5792 5791 5790 5790 5789 5788 5787 5786 5786 5785
5808 5807 5807 5806 5805 5805 5804 5803 5802 5801 5801 5800 5799 5798 5797 5796 5795 5794 5793 5792 5792 5792 5791 5791 5791 5790 5789 5788 5788 5787 5787 5786 5786 5785 5784 5784 5783 5782 5781 5780 5779 5778 5778
5801 5800 5799 5799 5798 5798 5797 5796 5795 5794 5793 5793 5792 5791 5790 5789 5788 5787 5786 5785 5784 5784 5784 5783 5783 5783 5782 5781 5780 5780 5779 5779 5779 5778 5777 5776 5775 5775 5773 5773 5772 5771 5770
5793 5792 5792 5791 5791 5790 5790 5789 5788 5787 5786 5785 5785 5784 5783 5782 5780 5779 5778 5778 5777 5776 5776 5776 5775 5775 5774 5773 5773 5772 5772 5771 5771 5770 5770 5769 5768 5767 5766 5765 5764 5763 5763
5785 5785 5784 5784 5783 5783 5783 5782 5781 5780 5779 5778 5777 5777 5776 5775 5773 5772 5771 5771 5770 5769 5768 5768 5768 5767 5766 5765 5765 5764 5763 5763 5763 5762 5761 5761 5760 5759 5758 5757 5756 5755 5755
5777 5777 5777 5776 5776 5776 5775 5775 5774 5773 5772 5771 5771 5769 5768 5767 5766 5765 5764 5764 5763 5762 5761 5760 5760 5759 5758 5757 5756 5756 5755 5755 5755 5754 5753 5753 5753 5752 5751 5750 5749 5748 5747
5769 5769 5769 5769 5769 5768 5768 5767 5767 5766 5766 5765 5764 5762 5761 5760 5759 5758 5757 5757 5756 5755 5754 5753 5752 5751 5750 5749 5748 5748 5747 5746 5746 5746 5745 5745 5745 5744 5744 5742 5741 5740 5738